CFG9MF EDDM-LIMC

Flight info

Callsign CFG9MF
Flight time 0h 52m
Altitude 24000
Route MERSI4Q MERSI Y100 ATMAX Z999 BEMKI L607 XEBIX Y740 NATAG DCT LORLO DCT ATPED DCT LUSIL DCT EVRIP
Aircraft A20N/M-SDE2E3FGHIRWXY/LB1

Departure

Time 2026-05-01 11:59
Airport Munich Airport (EDDM)

Arrival

Time 2026-05-01 12:52
Airport Milan Malpensa International Airport (LIMC)
Time Latitude Longitude Altitude Speed Heading
2026-05-01 11:20 48.35694 11.79716 1471 ft 0 kts 83°
2026-05-01 11:35 48.35695 11.79716 1471 ft 0 kts 83°
2026-05-01 11:36 48.35694 11.79716 1471 ft 0 kts 83°
2026-05-01 11:36 48.35695 11.79716 1471 ft 0 kts 83°
2026-05-01 11:37 48.35694 11.79706 1472 ft 2 kts 83°
2026-05-01 11:37 48.35692 11.79685 1472 ft 2 kts 83°
2026-05-01 11:38 48.35690 11.79662 1472 ft 2 kts 83°
2026-05-01 11:38 48.35689 11.79639 1472 ft 2 kts 84°
2026-05-01 11:38 48.35687 11.79617 1471 ft 2 kts 83°
2026-05-01 11:38 48.35685 11.79595 1472 ft 2 kts 84°
2026-05-01 11:39 48.35686 11.79572 1472 ft 2 kts 115°
2026-05-01 11:39 48.35695 11.79554 1472 ft 2 kts 143°
2026-05-01 11:39 48.35707 11.79545 1472 ft 0 kts 169°
2026-05-01 11:39 48.35713 11.79544 1472 ft 1 kts 175°
2026-05-01 11:40 48.35715 11.79544 1472 ft 0 kts 174°
2026-05-01 11:43 48.35712 11.79544 1471 ft 1 kts 174°
2026-05-01 11:43 48.35690 11.79548 1472 ft 4 kts 173°
2026-05-01 11:44 48.35579 11.79568 1473 ft 8 kts 173°
2026-05-01 11:44 48.35516 11.79579 1473 ft 9 kts 173°
2026-05-01 11:44 48.35450 11.79591 1473 ft 9 kts 174°
2026-05-01 11:44 48.35380 11.79603 1473 ft 10 kts 173°
2026-05-01 11:45 48.35305 11.79616 1474 ft 11 kts 174°
2026-05-01 11:45 48.35227 11.79629 1474 ft 11 kts 173°
2026-05-01 11:45 48.35145 11.79642 1474 ft 12 kts 173°
2026-05-01 11:45 48.35061 11.79658 1474 ft 12 kts 173°
2026-05-01 11:46 48.34995 11.79623 1475 ft 4 kts 250°
2026-05-01 11:46 48.34976 11.79572 1475 ft 6 kts 230°
2026-05-01 11:46 48.34948 11.79547 1475 ft 1 kts 187°
2026-05-01 11:46 48.34947 11.79547 1475 ft 0 kts 185°
2026-05-01 11:47 48.34941 11.79546 1475 ft 1 kts 185°
2026-05-01 11:47 48.34930 11.79545 1475 ft 1 kts 184°
2026-05-01 11:47 48.34914 11.79543 1475 ft 0 kts 184°
2026-05-01 11:48 48.34913 11.79543 1475 ft 0 kts 184°
2026-05-01 11:51 48.34900 11.79546 1475 ft 5 kts 171°
2026-05-01 11:51 48.34830 11.79559 1475 ft 11 kts 181°
2026-05-01 11:51 48.34784 11.79472 1476 ft 11 kts 262°
2026-05-01 11:51 48.34774 11.79348 1476 ft 12 kts 264°
2026-05-01 11:52 48.34764 11.79219 1477 ft 13 kts 264°
2026-05-01 11:52 48.34754 11.79071 1478 ft 15 kts 261°
2026-05-01 11:52 48.34739 11.78907 1478 ft 16 kts 263°
2026-05-01 11:52 48.34726 11.78726 1479 ft 18 kts 263°
2026-05-01 11:53 48.34709 11.78499 1480 ft 24 kts 264°
2026-05-01 11:53 48.34690 11.78246 1481 ft 23 kts 263°
2026-05-01 11:53 48.34671 11.78003 1481 ft 22 kts 263°
2026-05-01 11:53 48.34653 11.77769 1482 ft 22 kts 262°
2026-05-01 11:54 48.34635 11.77536 1483 ft 24 kts 263°
2026-05-01 11:54 48.34613 11.77257 1483 ft 28 kts 263°
2026-05-01 11:54 48.34591 11.76971 1484 ft 27 kts 264°
2026-05-01 11:54 48.34569 11.76689 1484 ft 26 kts 263°
2026-05-01 11:55 48.34547 11.76402 1485 ft 28 kts 263°
2026-05-01 11:55 48.34524 11.76111 1486 ft 27 kts 264°
2026-05-01 11:55 48.34504 11.75836 1487 ft 25 kts 263°
2026-05-01 11:55 48.34483 11.75569 1488 ft 25 kts 263°
2026-05-01 11:56 48.34463 11.75312 1488 ft 22 kts 263°
2026-05-01 11:56 48.34357 11.75228 1489 ft 19 kts 173°
2026-05-01 11:56 48.34236 11.75249 1490 ft 12 kts 174°
2026-05-01 11:56 48.34204 11.75255 1490 ft 0 kts 173°
2026-05-01 11:57 48.34202 11.75255 1490 ft 0 kts 173°
2026-05-01 11:58 48.34196 11.75256 1490 ft 3 kts 173°
2026-05-01 11:58 48.34141 11.75268 1490 ft 13 kts 166°
2026-05-01 11:58 48.34137 11.76004 1489 ft 90 kts 84°
2026-05-01 11:59 48.34232 11.77253 1486 ft 148 kts 83°
2026-05-01 11:59 48.34370 11.78931 1799 ft 167 kts 82°
2026-05-01 11:59 48.34508 11.80649 2476 ft 168 kts 85°
2026-05-01 12:00 48.34737 11.84075 3744 ft 175 kts 84°
2026-05-01 12:00 48.34877 11.85971 4132 ft 192 kts 84°
2026-05-01 12:00 48.35214 11.90372 4969 ft 229 kts 84°
2026-05-01 12:01 48.35398 11.92754 5762 ft 233 kts 86°
2026-05-01 12:01 48.35209 11.95142 6541 ft 236 kts 112°
2026-05-01 12:01 48.34235 11.97119 7322 ft 243 kts 137°
2026-05-01 12:01 48.32892 11.98679 8094 ft 248 kts 139°
2026-05-01 12:02 48.31516 12.00266 8857 ft 253 kts 139°
2026-05-01 12:02 48.30091 12.01825 9615 ft 259 kts 148°
2026-05-01 12:02 48.28364 12.02682 10333 ft 270 kts 170°
2026-05-01 12:02 48.26426 12.02719 10813 ft 288 kts 179°
2026-05-01 12:03 48.24384 12.02565 11366 ft 300 kts 180°
2026-05-01 12:03 48.22283 12.02394 12101 ft 305 kts 180°
2026-05-01 12:03 48.20151 12.02236 12833 ft 310 kts 180°
2026-05-01 12:03 48.17991 12.02094 13537 ft 315 kts 180°
2026-05-01 12:04 48.15791 12.01959 14239 ft 319 kts 180°
2026-05-01 12:04 48.13563 12.01826 14950 ft 323 kts 179°
2026-05-01 12:04 48.11314 12.01692 15657 ft 327 kts 180°
2026-05-01 12:04 48.09072 12.01073 16301 ft 336 kts 202°
2026-05-01 12:05 48.07173 11.99039 16943 ft 341 kts 230°
2026-05-01 12:05 48.05597 11.92501 18242 ft 343 kts 266°
2026-05-01 12:05 48.05335 11.88922 18875 ft 348 kts 266°
2026-05-01 12:06 48.05070 11.85326 19503 ft 352 kts 266°
2026-05-01 12:06 48.04792 11.81697 20131 ft 355 kts 265°
2026-05-01 12:06 48.04501 11.78037 20756 ft 358 kts 265°
2026-05-01 12:06 48.04201 11.74330 21359 ft 361 kts 265°
2026-05-01 12:07 48.03894 11.70598 21963 ft 365 kts 265°
2026-05-01 12:07 48.03585 11.66856 22563 ft 367 kts 265°
2026-05-01 12:07 48.03266 11.63035 23136 ft 371 kts 265°
2026-05-01 12:07 48.02946 11.59205 23695 ft 374 kts 265°
2026-05-01 12:08 48.02619 11.55336 24166 ft 377 kts 265°
2026-05-01 12:08 48.02290 11.51441 24306 ft 378 kts 265°
2026-05-01 12:08 48.01961 11.47572 24308 ft 377 kts 265°
2026-05-01 12:08 48.01630 11.43694 24308 ft 376 kts 265°
2026-05-01 12:09 48.01298 11.39822 24310 ft 376 kts 265°
2026-05-01 12:09 48.00967 11.35959 24316 ft 376 kts 265°
2026-05-01 12:09 48.00634 11.32096 24317 ft 376 kts 265°
2026-05-01 12:09 48.00298 11.28229 24330 ft 376 kts 264°
2026-05-01 12:10 47.99962 11.24368 24324 ft 376 kts 265°
2026-05-01 12:10 47.99288 11.16642 24324 ft 375 kts 264°
2026-05-01 12:10 47.98949 11.12783 24322 ft 375 kts 264°
2026-05-01 12:11 47.98036 11.05071 24297 ft 391 kts 247°
2026-05-01 12:11 47.96485 11.01654 24308 ft 409 kts 223°
2026-05-01 12:11 47.94082 10.99325 24309 ft 422 kts 200°
2026-05-01 12:12 47.91231 10.98048 24319 ft 436 kts 193°
2026-05-01 12:12 47.88238 10.96883 24312 ft 451 kts 194°
2026-05-01 12:12 47.85165 10.95558 24315 ft 465 kts 195°
2026-05-01 12:12 47.82053 10.94071 24310 ft 472 kts 197°
2026-05-01 12:13 47.78941 10.92481 24312 ft 473 kts 198°
2026-05-01 12:13 47.75836 10.90834 24315 ft 474 kts 199°
2026-05-01 12:13 47.72732 10.89156 24317 ft 474 kts 199°
2026-05-01 12:13 47.69627 10.87463 24318 ft 474 kts 199°
2026-05-01 12:14 47.66530 10.85769 24319 ft 474 kts 199°
2026-05-01 12:14 47.63439 10.84078 24326 ft 474 kts 199°
2026-05-01 12:14 47.60343 10.82384 24325 ft 474 kts 199°
2026-05-01 12:14 47.57254 10.80697 24325 ft 474 kts 199°
2026-05-01 12:15 47.54158 10.79007 24328 ft 474 kts 199°
2026-05-01 12:15 47.51061 10.77320 24327 ft 474 kts 199°
2026-05-01 12:15 47.47964 10.75634 24335 ft 475 kts 199°
2026-05-01 12:15 47.44864 10.73950 24330 ft 475 kts 199°
2026-05-01 12:16 47.41756 10.72263 24337 ft 475 kts 199°
2026-05-01 12:16 47.38644 10.70576 24341 ft 476 kts 199°
2026-05-01 12:16 47.35537 10.68894 24344 ft 475 kts 199°
2026-05-01 12:16 47.32438 10.67218 24349 ft 476 kts 199°
2026-05-01 12:17 47.29334 10.65541 24363 ft 475 kts 199°
2026-05-01 12:17 47.26213 10.63858 24373 ft 476 kts 199°
2026-05-01 12:17 47.23102 10.62182 24379 ft 476 kts 199°
2026-05-01 12:17 47.20000 10.60513 24372 ft 476 kts 199°
2026-05-01 12:18 47.16892 10.58842 24372 ft 476 kts 199°
2026-05-01 12:18 47.13786 10.57170 24377 ft 476 kts 199°
2026-05-01 12:18 47.10677 10.55497 24376 ft 476 kts 199°
2026-05-01 12:18 47.07499 10.54186 24357 ft 474 kts 188°
2026-05-01 12:19 47.04220 10.53958 24360 ft 471 kts 174°
2026-05-01 12:19 47.01016 10.54800 24366 ft 468 kts 162°
2026-05-01 12:19 46.97907 10.56198 24370 ft 467 kts 160°
2026-05-01 12:19 46.94815 10.57676 24369 ft 467 kts 159°
2026-05-01 12:20 46.91721 10.59139 24372 ft 468 kts 160°
2026-05-01 12:20 46.88622 10.60566 24368 ft 468 kts 160°
2026-05-01 12:20 46.85510 10.61976 24360 ft 469 kts 160°
2026-05-01 12:20 46.82361 10.63392 24360 ft 469 kts 160°
2026-05-01 12:21 46.79249 10.64789 24360 ft 468 kts 160°
2026-05-01 12:21 46.76097 10.66165 24361 ft 470 kts 163°
2026-05-01 12:21 46.72847 10.66853 24351 ft 475 kts 176°
2026-05-01 12:21 46.69540 10.66548 24347 ft 479 kts 188°
2026-05-01 12:22 46.66306 10.65361 24355 ft 480 kts 195°
2026-05-01 12:22 46.63109 10.63931 24349 ft 480 kts 197°
2026-05-01 12:22 46.59922 10.62473 24346 ft 480 kts 197°
2026-05-01 12:22 46.56725 10.61022 24345 ft 481 kts 197°
2026-05-01 12:23 46.53520 10.59588 24345 ft 480 kts 196°
2026-05-01 12:23 46.50329 10.58175 24348 ft 481 kts 196°
2026-05-01 12:23 46.47125 10.56769 24349 ft 481 kts 196°
2026-05-01 12:23 46.43921 10.55368 24348 ft 481 kts 196°
2026-05-01 12:24 46.40715 10.53972 24344 ft 482 kts 196°
2026-05-01 12:24 46.37512 10.52579 24336 ft 482 kts 196°
2026-05-01 12:24 46.34295 10.51181 24319 ft 482 kts 196°
2026-05-01 12:24 46.31085 10.49787 24305 ft 482 kts 196°
2026-05-01 12:25 46.27883 10.48399 24299 ft 482 kts 196°
2026-05-01 12:25 46.21441 10.45610 24313 ft 483 kts 196°
2026-05-01 12:25 46.18257 10.44040 24303 ft 484 kts 205°
2026-05-01 12:26 46.15465 10.41353 24315 ft 484 kts 224°
2026-05-01 12:26 46.11817 10.33384 24117 ft 477 kts 246°
2026-05-01 12:26 46.10373 10.29086 23850 ft 475 kts 246°
2026-05-01 12:27 46.08926 10.24791 23577 ft 473 kts 246°
2026-05-01 12:27 46.05986 10.16357 22899 ft 468 kts 245°
2026-05-01 12:28 46.03064 10.08035 21869 ft 461 kts 246°
2026-05-01 12:28 46.01680 10.03907 21286 ft 458 kts 246°
2026-05-01 12:28 45.98947 9.95725 20085 ft 450 kts 246°
2026-05-01 12:29 45.97596 9.91704 19507 ft 446 kts 245°
2026-05-01 12:29 45.96256 9.87732 18945 ft 441 kts 245°
2026-05-01 12:29 45.93593 9.79860 17792 ft 434 kts 245°
2026-05-01 12:30 45.90966 9.72129 16652 ft 427 kts 245°
2026-05-01 12:30 45.89714 9.68453 16135 ft 424 kts 245°
2026-05-01 12:30 45.88420 9.64660 15571 ft 420 kts 245°
2026-05-01 12:31 45.87133 9.60889 15140 ft 413 kts 244°
2026-05-01 12:31 45.85873 9.57206 14884 ft 405 kts 244°
2026-05-01 12:31 45.84643 9.53609 14646 ft 399 kts 244°
2026-05-01 12:31 45.83417 9.50031 14399 ft 394 kts 244°
2026-05-01 12:32 45.82208 9.46510 14174 ft 391 kts 244°
2026-05-01 12:32 45.79809 9.39551 13754 ft 386 kts 244°
2026-05-01 12:32 45.78615 9.36089 13595 ft 384 kts 244°
2026-05-01 12:33 45.77452 9.32723 13358 ft 373 kts 243°
2026-05-01 12:33 45.76308 9.29419 13276 ft 371 kts 243°
2026-05-01 12:33 45.75165 9.26115 12913 ft 365 kts 244°
2026-05-01 12:33 45.74050 9.22897 12521 ft 360 kts 244°
2026-05-01 12:34 45.72944 9.19705 12142 ft 354 kts 244°
2026-05-01 12:34 45.71853 9.16562 11769 ft 349 kts 244°
2026-05-01 12:34 45.70778 9.13471 11408 ft 344 kts 244°
2026-05-01 12:34 45.69697 9.10468 11066 ft 338 kts 238°
2026-05-01 12:35 45.68101 9.08083 10753 ft 329 kts 210°
2026-05-01 12:35 45.65976 9.07041 10513 ft 317 kts 188°
2026-05-01 12:35 45.63824 9.06545 10273 ft 309 kts 188°
2026-05-01 12:35 45.61734 9.06029 10142 ft 298 kts 189°
2026-05-01 12:36 45.59733 9.05477 10009 ft 287 kts 190°
2026-05-01 12:36 45.57799 9.04901 9862 ft 277 kts 191°
2026-05-01 12:36 45.55931 9.04321 9704 ft 270 kts 191°
2026-05-01 12:36 45.54078 9.03732 9544 ft 270 kts 191°
2026-05-01 12:37 45.52240 9.03140 9332 ft 270 kts 191°
2026-05-01 12:37 45.50404 9.02544 9059 ft 268 kts 191°
2026-05-01 12:37 45.48584 9.01952 8768 ft 267 kts 192°
2026-05-01 12:37 45.46776 9.01363 8466 ft 265 kts 191°
2026-05-01 12:38 45.44980 9.00779 8164 ft 264 kts 192°
2026-05-01 12:38 45.43181 9.00193 7857 ft 263 kts 192°
2026-05-01 12:38 45.41407 8.99615 7604 ft 258 kts 192°
2026-05-01 12:38 45.39663 8.99046 7374 ft 254 kts 192°
2026-05-01 12:39 45.37951 8.98489 7124 ft 250 kts 192°
2026-05-01 12:39 45.36268 8.97942 6742 ft 247 kts 192°
2026-05-01 12:39 45.34601 8.97400 6539 ft 245 kts 192°
2026-05-01 12:39 45.32928 8.96857 6452 ft 245 kts 192°
2026-05-01 12:40 45.31253 8.96349 6264 ft 245 kts 186°
2026-05-01 12:40 45.29555 8.96355 6013 ft 242 kts 171°
2026-05-01 12:40 45.27899 8.96770 5767 ft 241 kts 167°
2026-05-01 12:40 45.26256 8.97250 5523 ft 240 kts 167°
2026-05-01 12:41 45.24620 8.97722 5281 ft 239 kts 167°
2026-05-01 12:41 45.22970 8.98080 5029 ft 240 kts 180°
2026-05-01 12:41 45.21375 8.97441 4773 ft 241 kts 213°
2026-05-01 12:41 45.20243 8.95707 4522 ft 241 kts 243°
2026-05-01 12:42 45.19616 8.93525 4286 ft 236 kts 252°
2026-05-01 12:42 45.19150 8.91316 4036 ft 232 kts 262°
2026-05-01 12:42 45.19318 8.89126 3953 ft 216 kts 298°
2026-05-01 12:42 45.20201 8.87476 3822 ft 207 kts 319°
2026-05-01 12:43 45.21276 8.86126 3807 ft 208 kts 325°
2026-05-01 12:43 45.22478 8.84960 3900 ft 209 kts 330°
2026-05-01 12:43 45.23726 8.83883 3931 ft 209 kts 333°
2026-05-01 12:43 45.25036 8.82978 3940 ft 208 kts 342°
2026-05-01 12:44 45.26422 8.82376 3951 ft 207 kts 349°
2026-05-01 12:44 45.27837 8.81963 3955 ft 207 kts 352°
2026-05-01 12:44 45.30682 8.81226 3956 ft 207 kts 352°
2026-05-01 12:45 45.33464 8.80481 3957 ft 196 kts 351°
2026-05-01 12:45 45.34806 8.80114 4047 ft 197 kts 351°
2026-05-01 12:45 45.36156 8.79741 3994 ft 196 kts 351°
2026-05-01 12:46 45.37468 8.79375 3945 ft 187 kts 351°
2026-05-01 12:46 45.38735 8.79021 3643 ft 185 kts 351°
2026-05-01 12:46 45.40002 8.78668 3265 ft 187 kts 352°
2026-05-01 12:46 45.41275 8.78313 3008 ft 185 kts 352°
2026-05-01 12:47 45.42552 8.77958 2970 ft 187 kts 352°
2026-05-01 12:47 45.43837 8.77601 2971 ft 187 kts 351°
2026-05-01 12:47 45.45120 8.77244 2970 ft 187 kts 351°
2026-05-01 12:47 45.46368 8.76897 2958 ft 178 kts 352°
2026-05-01 12:48 45.47585 8.76559 2973 ft 177 kts 352°
2026-05-01 12:48 45.48800 8.76224 2968 ft 177 kts 351°
2026-05-01 12:48 45.50024 8.75886 2919 ft 178 kts 351°
2026-05-01 12:48 45.51245 8.75548 2711 ft 178 kts 351°
2026-05-01 12:49 45.52435 8.75218 2464 ft 167 kts 351°
2026-05-01 12:49 45.53515 8.74917 2230 ft 150 kts 351°
2026-05-01 12:49 45.54499 8.74644 2022 ft 139 kts 352°
2026-05-01 12:49 45.55449 8.74375 1864 ft 139 kts 351°
2026-05-01 12:50 45.56403 8.74093 1680 ft 140 kts 351°
2026-05-01 12:50 45.57361 8.73846 1527 ft 140 kts 352°
2026-05-01 12:50 45.58320 8.73597 1317 ft 139 kts 350°
2026-05-01 12:50 45.59272 8.73324 1154 ft 139 kts 350°
2026-05-01 12:51 45.60227 8.73064 962 ft 139 kts 351°
2026-05-01 12:51 45.61180 8.72803 789 ft 138 kts 350°
2026-05-01 12:51 45.62807 8.72358 733 ft 68 kts 350°
2026-05-01 12:52 45.63091 8.72228 738 ft 28 kts 326°
2026-05-01 12:52 45.63218 8.72085 742 ft 1 kts 319°
2026-05-01 12:52 45.63232 8.72067 742 ft 4 kts 319°
2026-05-01 12:53 45.63283 8.72002 743 ft 5 kts 318°
2026-05-01 12:53 45.63307 8.71956 744 ft 6 kts 292°
2026-05-01 12:53 45.63307 8.71878 744 ft 8 kts 261°
2026-05-01 12:54 45.63292 8.71782 744 ft 10 kts 258°
2026-05-01 12:54 45.63198 8.71684 742 ft 12 kts 169°
2026-05-01 12:54 45.63103 8.71710 740 ft 14 kts 169°
2026-05-01 12:55 45.62879 8.71773 737 ft 17 kts 169°
2026-05-01 12:55 45.62754 8.71807 735 ft 18 kts 169°
2026-05-01 12:55 45.62642 8.71776 733 ft 18 kts 252°
2026-05-01 12:56 45.62619 8.71605 734 ft 16 kts 259°
2026-05-01 12:56 45.62611 8.71520 734 ft 4 kts 286°
2026-05-01 12:56 45.62646 8.71486 734 ft 7 kts
2026-05-01 12:56 45.62676 8.71495 734 ft 1 kts 13°
2026-05-01 12:57 45.62687 8.71499 734 ft 1 kts 12°
2026-05-01 12:57 45.62688 8.71499 735 ft 0 kts 12°